Flag for U.S.A. Weather past 2 weeks in Tacoma, Washington, U.S.A.

Now
65 °F

Sunny.


Feels Like: 65 °F
Forecast: 52 / 74 °F
Wind: No wind

Location: Tacoma Narrows Airport

Current Time: Aug 21, 2014 at 9:51:09 PM

Latest Report: Aug 21, 2014 at 8:53 PM


Visibility: 10 mi

Pressure: 29.98 "Hg

Humidity: 59%

Dew point: 50 °F

Location of TacomaLocation

Historic Weather in Tacoma — Graph

°F

Tacoma temperature yesterday

Maximum temperature yesterday: 69 °F (at 4:53 PM)
Minimum temperature yesterday: 57 °F (at 4:53 AM)
Average temperature yesterday: 62 °F

Past Weeks' High & Low Weather Summary

 TemperatureHumidityPressure
High92 °F (Aug 11, 5:53 PM)100% (Aug 14, 6:53 AM)30.16 "Hg (Aug 14, 6:53 AM)
Low52 °F (Aug 21, 3:53 AM)25% (Aug 11, 6:53 PM)29.79 "Hg (Aug 19, 5:53 PM)
Average66 °F70%30.00 "Hg
* Reported Aug 6 8:53 PM — Aug 21 8:53 PM, Tacoma, Weather by CustomWeather, © 2014

Note: Actual official high and low records may vary slightly from our data, if they occured in-between our weather recording intervals... More about our weather records

Advertising

Tacoma weather history for previous 24 hours

 ConditionsComfort  
Time TempWeatherWind HumidityBarometerVisibility
8:53 PM
Aug 21
65 °FSunny.No wind59%29.98 "Hg10 mi
7:53 PM69 °FSunny.No wind51%29.96 "Hg10 mi
6:53 PM70 °FPassing clouds.No wind49%29.96 "Hg10 mi
5:53 PM69 °FPassing clouds.5 mph51%29.96 "Hg10 mi
4:53 PM69 °FSunny.5 mph51%29.98 "Hg10 mi
3:53 PM67 °FPassing clouds.7 mph57%29.99 "Hg10 mi
2:53 PM66 °FPassing clouds.7 mph59%30.01 "Hg10 mi
1:53 PM64 °FSunny.8 mph63%30.03 "Hg10 mi
12:53 PM63 °FPassing clouds.7 mph63%30.04 "Hg10 mi
11:53 AM61 °FPartly sunny.No wind67%30.04 "Hg10 mi
10:53 AM59 °FPartly sunny.6 mph69%30.05 "Hg10 mi
9:53 AM58 °FOvercast.8 mph70%30.05 "Hg10 mi
8:53 AM56 °FOvercast.9 mph77%30.05 "Hg10 mi
7:56 AM54 °FPartly sunny.7 mph86%30.05 "Hg10 mi
6:53 AM52 °FClear.7 mph89%30.03 "Hg10 mi
5:53 AM52 °FClear.6 mph89%30.02 "Hg10 mi
4:53 AM53 °FClear.5 mph89%30.02 "Hg10 mi
3:53 AM52 °FClear.5 mph93%30.02 "Hg10 mi
2:53 AM54 °FClear.5 mph86%30.03 "Hg10 mi
1:53 AM54 °FPassing clouds.5 mph86%30.02 "Hg10 mi
12:53 AM56 °FPassing clouds.3 mph81%30.01 "Hg10 mi
11:53 PM
Aug 20
57 °FClear.3 mph78%30.01 "Hg10 mi
10:53 PM58 °FClear.8 mph78%30.01 "Hg10 mi
9:53 PM60 °FClear.7 mph69%30.00 "Hg10 mi
Weather by CustomWeather, © 2014

See weather overviewHow to use our weather pages